Time,TemperatureF,DewpointF,PressureIn,WindDirection,WindDirectionDegrees,WindSpeedMPH,WindSpeedGustMPH,Humidity,HourlyPrecipIn,Conditions,Clouds,dailyrainin,SoftwareType,DateUTC
2013-07-01 00:01:00,71.5,58.7,29.93,North,360,1.0,8.0,64,0.00,,---,0.00,VWS V14.00,2013-07-01 06:01:00,
2013-07-01 00:06:00,71.4,58.6,29.93,North,360,1.0,5.0,64,0.00,,---,0.00,VWS V14.00,2013-07-01 06:06:00,
2013-07-01 00:11:00,71.3,58.5,29.93,North,360,5.0,7.0,64,0.00,,---,0.00,VWS V14.00,2013-07-01 06:11:00,
2013-07-01 00:16:00,71.4,58.6,29.93,North,360,4.0,9.0,64,0.00,,---,0.00,VWS V14.00,2013-07-01 06:16:00,
2013-07-01 00:21:00,71.5,59.1,29.92,North,360,5.0,9.0,65,0.00,,---,0.00,VWS V14.00,2013-07-01 06:21:00,
2013-07-01 00:26:00,71.4,59.0,29.92,North,360,5.0,9.0,65,0.00,,---,0.00,VWS V14.00,2013-07-01 06:26:00,
2013-07-01 00:31:00,71.3,58.9,29.92,North,360,5.0,9.0,65,0.00,,---,0.00,VWS V14.00,2013-07-01 06:31:00,
2013-07-01 00:36:00,71.3,59.4,29.92,North,360,5.0,7.0,66,0.00,,---,0.00,VWS V14.00,2013-07-01 06:36:00,
2013-07-01 00:41:00,71.3,59.4,29.92,North,360,5.0,9.0,66,0.00,,---,0.00,VWS V14.00,2013-07-01 06:41:00,
2013-07-01 00:46:00,71.2,59.3,29.92,North,360,5.0,9.0,66,0.00,,---,0.00,VWS V14.00,2013-07-01 06:46:00,
2013-07-01 00:51:00,71.1,59.2,29.93,North,360,4.0,9.0,66,0.00,,---,0.00,VWS V14.00,2013-07-01 06:51:00,
2013-07-01 00:55:00,71.0,59.1,29.92,North,360,1.0,9.0,66,0.00,,---,0.00,VWS V14.00,2013-07-01 06:55:00,
2013-07-01 01:00:00,70.9,59.0,29.92,North,360,4.0,9.0,66,0.00,,---,0.00,VWS V14.00,2013-07-01 07:00:00,
2013-07-01 01:05:00,70.7,58.8,29.92,North,360,3.0,7.0,66,0.00,,---,0.00,VWS V14.00,2013-07-01 07:05:00,
2013-07-01 01:10:00,70.6,58.7,29.92,North,360,6.0,7.0,66,0.00,,---,0.00,VWS V14.00,2013-07-01 07:10:00,
2013-07-01 01:15:00,70.4,58.9,29.92,North,360,4.0,7.0,67,0.00,,---,0.00,VWS V14.00,2013-07-01 07:15:00,
2013-07-01 01:20:00,70.2,59.2,29.92,North,360,4.0,8.0,68,0.00,,---,0.00,VWS V14.00,2013-07-01 07:20:00,
2013-07-01 01:25:00,70.0,59.0,29.92,North,360,3.0,9.0,68,0.00,,---,0.00,VWS V14.00,2013-07-01 07:25:00,
2013-07-01 01:30:00,69.7,58.7,29.92,North,360,3.0,9.0,68,0.00,,---,0.00,VWS V14.00,2013-07-01 07:30:00,
2013-07-01 01:35:00,69.4,58.8,29.92,North,360,6.0,7.0,69,0.00,,---,0.00,VWS V14.00,2013-07-01 07:35:00,
2013-07-01 01:40:00,69.3,59.1,29.92,North,360,5.0,7.0,70,0.00,,---,0.00,VWS V14.00,2013-07-01 07:40:00,
2013-07-01 01:45:00,69.3,59.1,29.92,North,360,5.0,10.0,70,0.00,,---,0.00,VWS V14.00,2013-07-01 07:45:00,
2013-07-01 01:50:00,69.3,59.1,29.92,North,360,5.0,10.0,70,0.00,,---,0.00,VWS V14.00,2013-07-01 07:50:00,
2013-07-01 01:55:00,69.3,59.1,29.92,North,360,6.0,10.0,70,0.00,,---,0.00,VWS V14.00,2013-07-01 07:55:00,
2013-07-01 02:00:00,69.4,59.2,29.92,North,360,7.0,10.0,70,0.00,,---,0.00,VWS V14.00,2013-07-01 08:00:00,
2013-07-01 02:05:00,69.4,59.2,29.92,North,360,6.0,7.0,70,0.00,,---,0.00,VWS V14.00,2013-07-01 08:05:00,
2013-07-01 02:10:00,69.4,59.6,29.92,North,360,5.0,9.0,71,0.00,,---,0.00,VWS V14.00,2013-07-01 08:10:00,
2013-07-01 02:15:00,69.3,59.5,29.91,North,360,5.0,9.0,71,0.00,,---,0.00,VWS V14.00,2013-07-01 08:15:00,
2013-07-01 02:20:00,69.3,59.5,29.92,North,360,6.0,9.0,71,0.00,,---,0.00,VWS V14.00,2013-07-01 08:20:00,
2013-07-01 02:25:00,69.2,59.4,29.92,North,360,5.0,9.0,71,0.00,,---,0.00,VWS V14.00,2013-07-01 08:25:00,
2013-07-01 02:30:00,69.2,59.4,29.92,North,360,2.0,9.0,71,0.00,,---,0.00,VWS V14.00,2013-07-01 08:30:00,
2013-07-01 02:35:00,69.0,59.2,29.92,North,360,1.0,7.0,71,0.00,,---,0.00,VWS V14.00,2013-07-01 08:35:00,
2013-07-01 02:40:00,68.7,59.3,29.92,North,360,3.0,7.0,72,0.00,,---,0.00,VWS V14.00,2013-07-01 08:40:00,
2013-07-01 02:45:00,68.7,59.3,29.92,North,360,6.0,8.0,72,0.00,,---,0.00,VWS V14.00,2013-07-01 08:45:00,
2013-07-01 02:50:00,68.7,59.3,29.92,North,360,6.0,10.0,72,0.00,,---,0.00,VWS V14.00,2013-07-01 08:50:00,
2013-07-01 02:55:00,68.8,59.8,29.92,North,360,6.0,11.0,73,0.00,,---,0.00,VWS V14.00,2013-07-01 08:55:00,
2013-07-01 03:00:00,68.7,59.7,29.92,North,360,7.0,13.0,73,0.00,,---,0.00,VWS V14.00,2013-07-01 09:00:00,
2013-07-01 03:05:00,68.7,59.7,29.92,North,360,5.0,11.0,73,0.00,,---,0.00,VWS V14.00,2013-07-01 09:05:00,
2013-07-01 03:10:00,68.6,60.0,29.92,North,360,4.0,11.0,74,0.00,,---,0.00,VWS V14.00,2013-07-01 09:10:00,
2013-07-01 03:15:00,68.5,59.9,29.92,North,360,6.0,11.0,74,0.00,,---,0.00,VWS V14.00,2013-07-01 09:15:00,
2013-07-01 03:20:00,68.4,60.2,29.92,North,360,5.0,11.0,75,0.00,,---,0.00,VWS V14.00,2013-07-01 09:20:00,
2013-07-01 03:25:00,68.3,60.1,29.93,North,360,6.0,11.0,75,0.00,,---,0.00,VWS V14.00,2013-07-01 09:25:00,
2013-07-01 03:30:00,68.3,60.1,29.92,North,360,9.0,11.0,75,0.00,,---,0.00,VWS V14.00,2013-07-01 09:30:00,
2013-07-01 03:35:00,68.3,60.5,29.93,North,360,6.0,11.0,76,0.00,,---,0.00,VWS V14.00,2013-07-01 09:35:00,
2013-07-01 03:40:00,68.5,60.3,29.92,North,360,6.0,11.0,75,0.00,,---,0.00,VWS V14.00,2013-07-01 09:40:00,
2013-07-01 03:45:00,68.7,60.5,29.93,North,360,3.0,11.0,75,0.00,,---,0.00,VWS V14.00,2013-07-01 09:45:00,
2013-07-01 03:50:00,68.6,60.4,29.93,North,360,6.0,11.0,75,0.00,,---,0.00,VWS V14.00,2013-07-01 09:50:00,
2013-07-01 03:55:00,68.6,60.4,29.93,North,360,3.0,11.0,75,0.00,,---,0.00,VWS V14.00,2013-07-01 09:55:00,
2013-07-01 04:00:00,68.6,60.4,29.93,North,360,6.0,11.0,75,0.00,,---,0.00,VWS V14.00,2013-07-01 10:00:00,
2013-07-01 04:05:00,68.6,60.4,29.93,North,360,4.0,9.0,75,0.00,,---,0.00,VWS V14.00,2013-07-01 10:05:00,
2013-07-01 04:10:00,68.6,60.4,29.93,North,360,6.0,9.0,75,0.00,,---,0.00,VWS V14.00,2013-07-01 10:10:00,
2013-07-01 04:15:00,68.6,60.4,29.93,North,360,9.0,9.0,75,0.00,,---,0.00,VWS V14.00,2013-07-01 10:15:00,
2013-07-01 04:20:00,68.5,60.3,29.93,North,360,3.0,9.0,75,0.00,,---,0.00,VWS V14.00,2013-07-01 10:20:00,
2013-07-01 04:25:00,68.4,60.2,29.93,North,360,3.0,9.0,75,0.00,,---,0.00,VWS V14.00,2013-07-01 10:25:00,
2013-07-01 04:30:00,68.3,60.1,29.93,North,360,5.0,10.0,75,0.00,,---,0.00,VWS V14.00,2013-07-01 10:30:00,
2013-07-01 04:35:00,68.2,60.0,29.94,North,360,2.0,8.0,75,0.00,,---,0.00,VWS V14.00,2013-07-01 10:35:00,
2013-07-01 04:40:00,68.1,59.9,29.94,North,360,4.0,8.0,75,0.00,,---,0.00,VWS V14.00,2013-07-01 10:40:00,
2013-07-01 04:45:00,67.9,59.7,29.94,North,360,5.0,9.0,75,0.00,,---,0.00,VWS V14.00,2013-07-01 10:45:00,
2013-07-01 04:50:00,67.7,59.9,29.94,North,360,4.0,9.0,76,0.00,,---,0.00,VWS V14.00,2013-07-01 10:50:00,
2013-07-01 04:55:00,67.6,59.8,29.94,North,360,5.0,10.0,76,0.00,,---,0.00,VWS V14.00,2013-07-01 10:55:00,
2013-07-01 05:00:00,67.5,59.7,29.95,North,360,6.0,10.0,76,0.00,,---,0.00,VWS V14.00,2013-07-01 11:00:00,
2013-07-01 05:05:00,67.5,60.0,29.95,North,360,5.0,8.0,77,0.00,,---,0.00,VWS V14.00,2013-07-01 11:05:00,
2013-07-01 05:10:00,67.4,60.0,29.95,North,360,0.0,9.0,77,0.00,,---,0.00,VWS V14.00,2013-07-01 11:10:00,
2013-07-01 05:15:00,67.3,59.8,29.96,North,360,4.0,9.0,77,0.00,,---,0.00,VWS V14.00,2013-07-01 11:15:00,
2013-07-01 05:20:00,67.2,59.8,29.96,North,360,5.0,9.0,77,0.00,,---,0.00,VWS V14.00,2013-07-01 11:20:00,
2013-07-01 05:25:00,67.1,59.7,29.96,North,360,3.0,9.0,77,0.00,,---,0.00,VWS V14.00,2013-07-01 11:25:00,
2013-07-01 05:30:00,67.2,59.8,29.96,North,360,3.0,9.0,77,0.00,,---,0.00,VWS V14.00,2013-07-01 11:30:00,
2013-07-01 05:35:00,67.3,59.8,29.96,North,360,2.0,6.0,77,0.00,,---,0.00,VWS V14.00,2013-07-01 11:35:00,
2013-07-01 05:40:00,67.4,60.0,29.96,North,360,3.0,6.0,77,0.00,,---,0.00,VWS V14.00,2013-07-01 11:40:00,
2013-07-01 05:45:00,67.6,60.1,29.97,North,360,4.0,6.0,77,0.00,,---,0.00,VWS V14.00,2013-07-01 11:45:00,
2013-07-01 05:50:00,67.7,60.2,29.97,North,360,4.0,6.0,77,0.00,,---,0.00,VWS V14.00,2013-07-01 11:50:00,
2013-07-01 05:55:00,67.9,60.1,29.97,North,360,3.0,6.0,76,0.00,,---,0.00,VWS V14.00,2013-07-01 11:55:00,
2013-07-01 06:00:00,68.0,60.2,29.97,North,360,6.0,7.0,76,0.00,,---,0.00,VWS V14.00,2013-07-01 12:00:00,
2013-07-01 06:05:00,68.1,60.3,29.97,North,360,7.0,7.0,76,0.00,,---,0.00,VWS V14.00,2013-07-01 12:05:00,
2013-07-01 06:10:00,68.4,60.5,29.97,North,360,6.0,7.0,76,0.00,,---,0.00,VWS V14.00,2013-07-01 12:10:00,
2013-07-01 06:15:00,68.6,60.4,29.97,North,360,3.0,9.0,75,0.00,,---,0.00,VWS V14.00,2013-07-01 12:15:00,
2013-07-01 06:20:00,68.9,60.7,29.98,North,360,5.0,10.0,75,0.00,,---,0.00,VWS V14.00,2013-07-01 12:20:00,
2013-07-01 06:25:00,69.2,61.0,29.98,North,360,6.0,10.0,75,0.00,,---,0.00,VWS V14.00,2013-07-01 12:25:00,
2013-07-01 06:30:00,69.6,61.0,29.99,North,360,7.0,10.0,74,0.00,,---,0.00,VWS V14.00,2013-07-01 12:30:00,
2013-07-01 06:35:00,70.1,61.4,29.99,North,360,2.0,11.0,74,0.00,,---,0.00,VWS V14.00,2013-07-01 12:35:00,
2013-07-01 06:40:00,70.4,61.3,29.99,North,360,9.0,11.0,73,0.00,,---,0.00,VWS V14.00,2013-07-01 12:40:00,
2013-07-01 06:45:00,70.5,61.0,29.99,North,360,10.0,11.0,72,0.00,,---,0.00,VWS V14.00,2013-07-01 12:45:00,
2013-07-01 06:50:00,70.8,61.3,29.99,North,360,6.0,11.0,72,0.00,,---,0.00,VWS V14.00,2013-07-01 12:50:00,
2013-07-01 06:55:00,71.1,61.6,29.99,North,360,7.0,11.0,72,0.00,,---,0.00,VWS V14.00,2013-07-01 12:55:00,
2013-07-01 07:00:00,71.2,61.3,29.99,North,360,9.0,14.0,71,0.00,,---,0.00,VWS V14.00,2013-07-01 13:00:00,
2013-07-01 07:05:00,71.6,61.7,29.99,North,360,1.0,10.0,71,0.00,,---,0.00,VWS V14.00,2013-07-01 13:05:00,
2013-07-01 07:10:00,72.0,61.7,29.99,North,360,10.0,14.0,70,0.00,,---,0.00,VWS V14.00,2013-07-01 13:10:00,
2013-07-01 07:15:00,72.1,61.8,29.99,North,360,8.0,14.0,70,0.00,,---,0.00,VWS V14.00,2013-07-01 13:15:00,
2013-07-01 07:20:00,72.4,62.1,29.99,North,360,5.0,14.0,70,0.00,,---,0.00,VWS V14.00,2013-07-01 13:20:00,
2013-07-01 07:25:00,72.7,62.0,29.99,North,360,4.0,14.0,69,0.00,,---,0.00,VWS V14.00,2013-07-01 13:25:00,
2013-07-01 07:30:00,72.9,61.7,29.99,North,360,9.0,15.0,68,0.00,,---,0.00,VWS V14.00,2013-07-01 13:30:00,
2013-07-01 07:35:00,72.7,61.5,29.99,North,360,9.0,15.0,68,0.00,,---,0.00,VWS V14.00,2013-07-01 13:35:00,
2013-07-01 07:40:00,72.6,61.4,30.00,North,360,10.0,18.0,68,0.00,,---,0.00,VWS V14.00,2013-07-01 13:40:00,
2013-07-01 07:45:00,72.6,61.4,30.00,North,360,7.0,18.0,68,0.00,,---,0.00,VWS V14.00,2013-07-01 13:45:00,
2013-07-01 07:50:00,72.8,61.6,29.99,North,360,5.0,18.0,68,0.00,,---,0.00,VWS V14.00,2013-07-01 13:50:00,
2013-07-01 07:55:00,73.2,62.0,30.00,North,360,7.0,18.0,68,0.00,,---,0.00,VWS V14.00,2013-07-01 13:55:00,
2013-07-01 08:00:00,73.7,62.1,30.00,North,360,9.0,18.0,67,0.00,,---,0.00,VWS V14.00,2013-07-01 14:00:00,
2013-07-01 08:05:00,73.8,62.2,30.00,North,360,6.0,9.0,67,0.00,,---,0.00,VWS V14.00,2013-07-01 14:05:00,
2013-07-01 08:09:00,74.0,62.4,30.00,North,360,2.0,13.0,67,0.00,,---,0.00,VWS V14.00,2013-07-01 14:09:00,
2013-07-01 08:15:00,74.2,62.5,30.00,North,360,7.0,13.0,67,0.00,,---,0.00,VWS V14.00,2013-07-01 14:15:00,
2013-07-01 08:20:00,74.4,62.3,30.00,North,360,13.0,13.0,66,0.00,,---,0.00,VWS V14.00,2013-07-01 14:20:00,
2013-07-01 08:25:00,74.6,62.1,30.00,North,360,6.0,13.0,65,0.00,,---,0.00,VWS V14.00,2013-07-01 14:25:00,
2013-07-01 08:30:00,75.1,62.5,30.01,North,360,5.0,13.0,65,0.00,,---,0.00,VWS V14.00,2013-07-01 14:30:00,
2013-07-01 08:34:00,75.5,62.5,30.01,North,360,5.0,12.0,64,0.00,,---,0.00,VWS V14.00,2013-07-01 14:34:00,
2013-07-01 08:39:00,76.0,62.0,30.01,North,360,5.0,13.0,62,0.00,,---,0.00,VWS V14.00,2013-07-01 14:39:00,
2013-07-01 08:44:00,76.2,62.2,30.00,North,360,6.0,13.0,62,0.00,,---,0.00,VWS V14.00,2013-07-01 14:44:00,
2013-07-01 08:49:00,76.5,62.1,30.00,North,360,12.0,13.0,61,0.00,,---,0.00,VWS V14.00,2013-07-01 14:49:00,
2013-07-01 08:54:00,76.9,62.4,30.01,North,360,3.0,17.0,61,0.00,,---,0.00,VWS V14.00,2013-07-01 14:54:00,
2013-07-01 08:59:00,77.6,62.6,30.00,North,360,10.0,17.0,60,0.00,,---,0.00,VWS V14.00,2013-07-01 14:59:00,
2013-07-01 09:04:00,77.6,61.7,30.00,North,360,13.0,18.0,58,0.00,,---,0.00,VWS V14.00,2013-07-01 15:04:00,
2013-07-01 09:09:00,77.4,62.9,30.00,North,360,9.0,18.0,61,0.00,,---,0.00,VWS V14.00,2013-07-01 15:09:00,
2013-07-01 09:14:00,77.5,62.1,30.00,North,360,12.0,18.0,59,0.00,,---,0.00,VWS V14.00,2013-07-01 15:14:00,
2013-07-01 09:19:00,77.5,62.1,30.00,North,360,12.0,18.0,59,0.00,,---,0.00,VWS V14.00,2013-07-01 15:19:00,
2013-07-01 09:24:00,78.0,62.0,30.00,North,360,6.0,18.0,58,0.00,,---,0.00,VWS V14.00,2013-07-01 15:24:00,
2013-07-01 09:29:00,78.3,61.3,30.00,North,360,2.0,18.0,56,0.00,,---,0.00,VWS V14.00,2013-07-01 15:29:00,
2013-07-01 09:34:00,78.2,62.2,30.00,North,360,10.0,14.0,58,0.00,,---,0.00,VWS V14.00,2013-07-01 15:34:00,
2013-07-01 09:39:00,78.5,62.0,30.00,North,360,7.0,14.0,57,0.00,,---,0.00,VWS V14.00,2013-07-01 15:39:00,
2013-07-01 09:44:00,78.7,62.2,30.00,North,360,6.0,17.0,57,0.00,,---,0.00,VWS V14.00,2013-07-01 15:44:00,
2013-07-01 09:49:00,79.2,62.2,30.01,North,360,10.0,18.0,56,0.00,,---,0.00,VWS V14.00,2013-07-01 15:49:00,
2013-07-01 09:54:00,79.0,62.0,30.01,North,360,9.0,18.0,56,0.00,,---,0.00,VWS V14.00,2013-07-01 15:54:00,
2013-07-01 09:59:00,79.2,61.7,30.01,North,360,9.0,18.0,55,0.00,,---,0.00,VWS V14.00,2013-07-01 15:59:00,
2013-07-01 10:04:00,79.4,61.8,30.01,North,360,3.0,20.0,55,0.00,,---,0.00,VWS V14.00,2013-07-01 16:04:00,
2013-07-01 10:09:00,79.4,62.3,30.01,North,360,12.0,20.0,56,0.00,,---,0.00,VWS V14.00,2013-07-01 16:09:00,
2013-07-01 10:14:00,79.4,62.3,30.01,North,360,4.0,20.0,56,0.00,,---,0.00,VWS V14.00,2013-07-01 16:14:00,
2013-07-01 10:19:00,80.0,62.4,30.00,North,360,23.0,23.0,55,0.00,,---,0.00,VWS V14.00,2013-07-01 16:19:00,
2013-07-01 10:24:00,79.6,62.0,30.01,North,360,11.0,23.0,55,0.00,,---,0.00,VWS V14.00,2013-07-01 16:24:00,
2013-07-01 10:29:00,79.5,61.9,30.01,North,360,3.0,23.0,55,0.00,,---,0.00,VWS V14.00,2013-07-01 16:29:00,
2013-07-01 10:34:00,79.8,61.2,30.01,North,360,14.0,18.0,53,0.00,,---,0.00,VWS V14.00,2013-07-01 16:34:00,
2013-07-01 10:39:00,79.8,60.6,30.01,North,360,11.0,21.0,52,0.00,,---,0.00,VWS V14.00,2013-07-01 16:39:00,
2013-07-01 10:44:00,79.9,61.3,30.01,North,360,14.0,21.0,53,0.00,,---,0.00,VWS V14.00,2013-07-01 16:44:00,
2013-07-01 10:49:00,79.5,60.9,30.00,North,360,14.0,21.0,53,0.00,,---,0.00,VWS V14.00,2013-07-01 16:49:00,
2013-07-01 10:54:00,79.4,61.3,30.00,North,360,5.0,24.0,54,0.00,,---,0.00,VWS V14.00,2013-07-01 16:54:00,
2013-07-01 10:59:00,80.1,60.9,30.00,North,360,9.0,24.0,52,0.00,,---,0.00,VWS V14.00,2013-07-01 16:59:00,
2013-07-01 11:04:00,80.4,61.2,30.00,North,360,12.0,22.0,52,0.00,,---,0.00,VWS V14.00,2013-07-01 17:04:00,
2013-07-01 11:09:00,80.4,61.2,30.00,North,360,12.0,22.0,52,0.00,,---,0.00,VWS V14.00,2013-07-01 17:09:00,
2013-07-01 11:10:00,80.4,61.2,30.00,North,360,9.0,22.0,52,0.00,,---,0.00,VWS V14.00,2013-07-01 17:10:00,
2013-07-01 11:15:00,80.6,61.9,30.00,North,360,9.0,25.0,53,0.00,,---,0.00,VWS V14.00,2013-07-01 17:15:00,
2013-07-01 11:20:00,80.6,61.4,30.00,North,360,4.0,25.0,52,0.00,,---,0.00,VWS V14.00,2013-07-01 17:20:00,
2013-07-01 11:25:00,80.7,60.9,30.00,North,360,13.0,25.0,51,0.00,,---,0.00,VWS V14.00,2013-07-01 17:25:00,
2013-07-01 11:30:00,80.8,61.0,30.00,North,360,4.0,25.0,51,0.00,,---,0.00,VWS V14.00,2013-07-01 17:30:00,
2013-07-01 11:35:00,80.5,60.2,30.00,North,360,5.0,19.0,50,0.00,,---,0.00,VWS V14.00,2013-07-01 17:35:00,
2013-07-01 11:40:00,80.9,61.1,30.00,North,360,18.0,19.0,51,0.00,,---,0.00,VWS V14.00,2013-07-01 17:40:00,
2013-07-01 11:45:00,81.3,60.9,29.99,North,360,17.0,22.0,50,0.00,,---,0.00,VWS V14.00,2013-07-01 17:45:00,
2013-07-01 11:50:00,80.7,59.8,29.99,North,360,10.0,22.0,49,0.00,,---,0.00,VWS V14.00,2013-07-01 17:50:00,
2013-07-01 11:55:00,81.1,61.3,29.99,North,360,6.0,22.0,51,0.00,,---,0.00,VWS V14.00,2013-07-01 17:55:00,
2013-07-01 12:00:00,81.4,60.4,29.99,North,360,11.0,22.0,49,0.00,,---,0.00,VWS V14.00,2013-07-01 18:00:00,
2013-07-01 12:05:00,81.6,61.2,29.99,North,360,9.0,26.0,50,0.00,,---,0.00,VWS V14.00,2013-07-01 18:05:00,
2013-07-01 12:10:00,82.1,61.6,29.99,North,360,4.0,26.0,50,0.00,,---,0.00,VWS V14.00,2013-07-01 18:10:00,
2013-07-01 12:15:00,82.0,61.0,29.99,North,360,7.0,26.0,49,0.00,,---,0.00,VWS V14.00,2013-07-01 18:15:00,
2013-07-01 12:20:00,82.2,61.2,29.99,North,360,19.0,26.0,49,0.00,,---,0.00,VWS V14.00,2013-07-01 18:20:00,
2013-07-01 12:25:00,82.0,60.4,29.99,North,360,15.0,26.0,48,0.00,,---,0.00,VWS V14.00,2013-07-01 18:25:00,
2013-07-01 12:30:00,82.4,60.2,29.99,North,360,13.0,26.0,47,0.00,,---,0.00,VWS V14.00,2013-07-01 18:30:00,
2013-07-01 12:35:00,82.6,60.9,29.99,North,360,9.0,21.0,48,0.00,,---,0.00,VWS V14.00,2013-07-01 18:35:00,
2013-07-01 12:40:00,82.4,60.8,29.99,North,360,6.0,22.0,48,0.00,,---,0.00,VWS V14.00,2013-07-01 18:40:00,
2013-07-01 12:45:00,82.9,60.0,29.99,North,360,12.0,24.0,46,0.00,,---,0.00,VWS V14.00,2013-07-01 18:45:00,
2013-07-01 12:50:00,82.6,60.3,29.98,North,360,6.0,24.0,47,0.00,,---,0.00,VWS V14.00,2013-07-01 18:50:00,
2013-07-01 12:55:00,82.2,60.6,29.98,North,360,9.0,24.0,48,0.00,,---,0.00,VWS V14.00,2013-07-01 18:55:00,
2013-07-01 13:00:00,82.8,60.5,29.98,North,360,4.0,24.0,47,0.00,,---,0.00,VWS V14.00,2013-07-01 19:00:00,
2013-07-01 13:05:00,82.6,59.8,29.99,North,360,5.0,21.0,46,0.00,,---,0.00,VWS V14.00,2013-07-01 19:05:00,
2013-07-01 13:10:00,82.7,60.4,29.98,North,360,10.0,21.0,47,0.00,,---,0.00,VWS V14.00,2013-07-01 19:10:00,
2013-07-01 13:15:00,83.4,60.5,29.98,North,360,5.0,21.0,46,0.00,,---,0.00,VWS V14.00,2013-07-01 19:15:00,
2013-07-01 13:20:00,83.4,61.1,29.98,North,360,7.0,22.0,47,0.00,,---,0.00,VWS V14.00,2013-07-01 19:20:00,
2013-07-01 13:25:00,83.6,60.0,29.97,North,360,11.0,22.0,45,0.00,,---,0.00,VWS V14.00,2013-07-01 19:25:00,
2013-07-01 13:30:00,83.9,60.9,29.97,North,360,14.0,22.0,46,0.00,,---,0.00,VWS V14.00,2013-07-01 19:30:00,
2013-07-01 13:35:00,83.8,60.2,29.97,North,360,12.0,25.0,45,0.00,,---,0.00,VWS V14.00,2013-07-01 19:35:00,
2013-07-01 13:40:00,83.3,60.4,29.97,North,360,13.0,25.0,46,0.00,,---,0.00,VWS V14.00,2013-07-01 19:40:00,
2013-07-01 13:45:00,83.3,60.4,29.97,North,360,16.0,25.0,46,0.00,,---,0.00,VWS V14.00,2013-07-01 19:45:00,
2013-07-01 13:50:00,83.4,61.1,29.97,North,360,14.0,25.0,47,0.00,,---,0.00,VWS V14.00,2013-07-01 19:50:00,
2013-07-01 13:55:00,83.4,60.5,29.97,North,360,20.0,25.0,46,0.00,,---,0.00,VWS V14.00,2013-07-01 19:55:00,
2013-07-01 14:00:00,83.9,60.3,29.97,North,360,11.0,25.0,45,0.00,,---,0.00,VWS V14.00,2013-07-01 20:00:00,
2013-07-01 14:05:00,84.5,60.2,29.97,North,360,10.0,17.0,44,0.00,,---,0.00,VWS V14.00,2013-07-01 20:05:00,
2013-07-01 14:10:00,84.3,58.7,29.97,North,360,10.0,19.0,42,0.00,,---,0.00,VWS V14.00,2013-07-01 20:10:00,
2013-07-01 14:15:00,84.3,59.4,29.97,North,360,6.0,19.0,43,0.00,,---,0.00,VWS V14.00,2013-07-01 20:15:00,
2013-07-01 14:20:00,83.9,59.7,29.97,North,360,12.0,19.0,44,0.00,,---,0.00,VWS V14.00,2013-07-01 20:20:00,
2013-07-01 14:25:00,84.2,60.0,29.96,North,360,12.0,19.0,44,0.00,,---,0.00,VWS V14.00,2013-07-01 20:25:00,
2013-07-01 14:30:00,84.6,59.0,29.96,North,360,9.0,19.0,42,0.00,,---,0.00,VWS V14.00,2013-07-01 20:30:00,
2013-07-01 14:35:00,84.6,59.7,29.96,North,360,10.0,16.0,43,0.00,,---,0.00,VWS V14.00,2013-07-01 20:35:00,
2013-07-01 14:40:00,84.8,59.2,29.96,North,360,11.0,16.0,42,0.00,,---,0.00,VWS V14.00,2013-07-01 20:40:00,
2013-07-01 14:45:00,85.3,60.3,29.96,North,360,17.0,21.0,43,0.00,,---,0.00,VWS V14.00,2013-07-01 20:45:00,
2013-07-01 14:50:00,85.4,59.7,29.96,North,360,11.0,21.0,42,0.00,,---,0.00,VWS V14.00,2013-07-01 20:50:00,
2013-07-01 14:55:00,85.3,60.3,29.96,North,360,19.0,23.0,43,0.00,,---,0.00,VWS V14.00,2013-07-01 20:55:00,
2013-07-01 15:00:00,85.0,59.4,29.96,North,360,10.0,23.0,42,0.00,,---,0.00,VWS V14.00,2013-07-01 21:00:00,
2013-07-01 15:05:00,84.7,60.4,29.96,North,360,7.0,16.0,44,0.00,,---,0.00,VWS V14.00,2013-07-01 21:05:00,
2013-07-01 15:10:00,85.1,60.1,29.96,North,360,17.0,21.0,43,0.00,,---,0.00,VWS V14.00,2013-07-01 21:10:00,
2013-07-01 15:15:00,85.3,59.0,29.96,North,360,5.0,21.0,41,0.00,,---,0.00,VWS V14.00,2013-07-01 21:15:00,
2013-07-01 15:20:00,85.2,60.2,29.96,North,360,2.0,21.0,43,0.00,,---,0.00,VWS V14.00,2013-07-01 21:20:00,
2013-07-01 15:25:00,85.3,60.3,29.96,North,360,12.0,21.0,43,0.00,,---,0.00,VWS V14.00,2013-07-01 21:25:00,
2013-07-01 15:30:00,85.4,60.4,29.95,North,360,4.0,21.0,43,0.00,,---,0.00,VWS V14.00,2013-07-01 21:30:00,
2013-07-01 15:35:00,85.8,61.4,29.95,North,360,4.0,15.0,44,0.00,,---,0.00,VWS V14.00,2013-07-01 21:35:00,
2013-07-01 15:40:00,85.1,61.4,29.95,North,360,2.0,17.0,45,0.00,,---,0.00,VWS V14.00,2013-07-01 21:40:00,
2013-07-01 15:45:00,85.0,61.3,29.95,North,360,12.0,24.0,45,0.00,,---,0.00,VWS V14.00,2013-07-01 21:45:00,
2013-07-01 15:50:00,84.8,61.7,29.95,North,360,10.0,24.0,46,0.00,,---,0.00,VWS V14.00,2013-07-01 21:50:00,
2013-07-01 15:55:00,84.8,60.5,29.95,North,360,11.0,24.0,44,0.00,,---,0.00,VWS V14.00,2013-07-01 21:55:00,
2013-07-01 16:00:00,84.5,60.8,29.95,North,360,12.0,24.0,45,0.00,,---,0.00,VWS V14.00,2013-07-01 22:00:00,
2013-07-01 16:05:00,84.6,60.9,29.95,North,360,7.0,13.0,45,0.00,,---,0.00,VWS V14.00,2013-07-01 22:05:00,
2013-07-01 16:10:00,84.6,60.9,29.95,North,360,6.0,17.0,45,0.00,,---,0.00,VWS V14.00,2013-07-01 22:10:00,
2013-07-01 16:15:00,85.0,60.7,29.95,North,360,11.0,17.0,44,0.00,,---,0.00,VWS V14.00,2013-07-01 22:15:00,
2013-07-01 16:20:00,85.1,60.8,29.95,North,360,9.0,17.0,44,0.00,,---,0.00,VWS V14.00,2013-07-01 22:20:00,
2013-07-01 16:25:00,85.0,61.3,29.95,North,360,5.0,23.0,45,0.00,,---,0.00,VWS V14.00,2013-07-01 22:25:00,
2013-07-01 16:30:00,84.6,61.6,29.95,North,360,16.0,23.0,46,0.00,,---,0.00,VWS V14.00,2013-07-01 22:30:00,
2013-07-01 16:35:00,84.9,61.2,29.95,North,360,13.0,17.0,45,0.00,,---,0.00,VWS V14.00,2013-07-01 22:35:00,
2013-07-01 16:40:00,84.8,60.5,29.95,North,360,7.0,17.0,44,0.00,,---,0.00,VWS V14.00,2013-07-01 22:40:00,
2013-07-01 16:45:00,85.1,60.8,29.95,North,360,6.0,17.0,44,0.00,,---,0.00,VWS V14.00,2013-07-01 22:45:00,
2013-07-01 16:50:00,85.3,60.9,29.94,North,360,7.0,18.0,44,0.00,,---,0.00,VWS V14.00,2013-07-01 22:50:00,
2013-07-01 16:54:00,85.5,61.1,29.94,North,360,12.0,19.0,44,0.00,,---,0.00,VWS V14.00,2013-07-01 22:54:00,
2013-07-01 16:59:00,85.4,61.7,29.94,North,360,5.0,20.0,45,0.00,,---,0.00,VWS V14.00,2013-07-01 22:59:00,
2013-07-01 17:04:00,85.4,61.0,29.94,North,360,5.0,17.0,44,0.00,,---,0.00,VWS V14.00,2013-07-01 23:04:00,
2013-07-01 17:09:00,85.6,59.2,29.94,North,360,12.0,18.0,41,0.00,,---,0.00,VWS V14.00,2013-07-01 23:09:00,
2013-07-01 17:14:00,84.8,58.5,29.94,North,360,3.0,18.0,41,0.00,,---,0.00,VWS V14.00,2013-07-01 23:14:00,
2013-07-01 17:19:00,84.8,59.2,29.94,North,360,4.0,18.0,42,0.00,,---,0.00,VWS V14.00,2013-07-01 23:19:00,
2013-07-01 17:24:00,85.1,60.1,29.94,North,360,10.0,18.0,43,0.00,,---,0.00,VWS V14.00,2013-07-01 23:24:00,
2013-07-01 17:29:00,85.0,59.4,29.94,North,360,10.0,18.0,42,0.00,,---,0.00,VWS V14.00,2013-07-01 23:29:00,
2013-07-01 17:34:00,84.8,59.8,29.94,North,360,3.0,23.0,43,0.00,,---,0.00,VWS V14.00,2013-07-01 23:34:00,
2013-07-01 17:39:00,85.0,60.0,29.94,North,360,10.0,23.0,43,0.00,,---,0.00,VWS V14.00,2013-07-01 23:39:00,
2013-07-01 17:44:00,84.6,60.3,29.94,North,360,6.0,23.0,44,0.00,,---,0.00,VWS V14.00,2013-07-01 23:44:00,
2013-07-01 17:49:00,84.2,60.0,29.94,North,360,9.0,23.0,44,0.00,,---,0.00,VWS V14.00,2013-07-01 23:49:00,
2013-07-01 17:54:00,84.4,60.1,29.95,North,360,9.0,23.0,44,0.00,,---,0.00,VWS V14.00,2013-07-01 23:54:00,
2013-07-01 17:59:00,84.5,60.8,29.95,North,360,6.0,23.0,45,0.00,,---,0.00,VWS V14.00,2013-07-01 23:59:00,
2013-07-01 18:04:00,84.5,60.8,29.95,North,360,1.0,12.0,45,0.00,,---,0.00,VWS V14.00,2013-07-02 00:04:00,
2013-07-01 18:09:00,84.6,60.9,29.95,North,360,13.0,16.0,45,0.00,,---,0.00,VWS V14.00,2013-07-02 00:09:00,
2013-07-01 18:14:00,84.4,60.8,29.95,North,360,12.0,17.0,45,0.00,,---,0.00,VWS V14.00,2013-07-02 00:14:00,
2013-07-01 18:19:00,84.1,61.1,29.95,North,360,4.0,17.0,46,0.00,,---,0.00,VWS V14.00,2013-07-02 00:19:00,
2013-07-01 18:24:00,83.6,61.3,29.95,North,360,4.0,17.0,47,0.00,,---,0.00,VWS V14.00,2013-07-02 00:24:00,
2013-07-01 18:29:00,83.2,60.9,29.95,North,360,11.0,17.0,47,0.00,,---,0.00,VWS V14.00,2013-07-02 00:29:00,
2013-07-01 18:34:00,82.9,60.6,29.95,North,360,5.0,11.0,47,0.00,,---,0.00,VWS V14.00,2013-07-02 00:34:00,
2013-07-01 18:39:00,82.7,60.4,29.95,North,360,7.0,13.0,47,0.00,,---,0.00,VWS V14.00,2013-07-02 00:39:00,
2013-07-01 18:44:00,82.8,61.1,29.95,North,360,4.0,13.0,48,0.00,,---,0.00,VWS V14.00,2013-07-02 00:44:00,
2013-07-01 18:49:00,82.5,60.8,29.95,North,360,9.0,13.0,48,0.00,,---,0.00,VWS V14.00,2013-07-02 00:49:00,
2013-07-01 18:54:00,82.3,60.7,29.95,North,360,13.0,13.0,48,0.00,,---,0.00,VWS V14.00,2013-07-02 00:54:00,
2013-07-01 18:59:00,82.1,60.5,29.95,North,360,10.0,13.0,48,0.00,,---,0.00,VWS V14.00,2013-07-02 00:59:00,
2013-07-01 19:04:00,82.0,60.4,29.95,North,360,13.0,13.0,48,0.00,,---,0.00,VWS V14.00,2013-07-02 01:04:00,
2013-07-01 19:09:00,81.8,60.8,29.96,North,360,5.0,13.0,49,0.00,,---,0.00,VWS V14.00,2013-07-02 01:09:00,
2013-07-01 19:14:00,81.8,60.8,29.96,North,360,12.0,13.0,49,0.00,,---,0.00,VWS V14.00,2013-07-02 01:14:00,
2013-07-01 19:19:00,81.6,60.6,29.96,North,360,5.0,13.0,49,0.00,,---,0.00,VWS V14.00,2013-07-02 01:19:00,
2013-07-01 19:24:00,81.4,60.4,29.96,North,360,10.0,13.0,49,0.00,,---,0.00,VWS V14.00,2013-07-02 01:24:00,
2013-07-01 19:29:00,81.2,60.8,29.96,North,360,3.0,13.0,50,0.00,,---,0.00,VWS V14.00,2013-07-02 01:29:00,
2013-07-01 19:34:00,80.9,60.5,29.96,North,360,6.0,13.0,50,0.00,,---,0.00,VWS V14.00,2013-07-02 01:34:00,
2013-07-01 19:39:00,80.6,60.3,29.96,North,360,3.0,14.0,50,0.00,,---,0.00,VWS V14.00,2013-07-02 01:39:00,
2013-07-01 19:44:00,80.4,60.1,29.97,North,360,6.0,14.0,50,0.00,,---,0.00,VWS V14.00,2013-07-02 01:44:00,
2013-07-01 19:49:00,80.2,59.9,29.97,North,360,3.0,14.0,50,0.00,,---,0.00,VWS V14.00,2013-07-02 01:49:00,
2013-07-01 19:54:00,80.1,59.8,29.97,North,360,3.0,14.0,50,0.00,,---,0.00,VWS V14.00,2013-07-02 01:54:00,
2013-07-01 19:59:00,79.8,59.5,29.97,North,360,7.0,14.0,50,0.00,,---,0.00,VWS V14.00,2013-07-02 01:59:00,
2013-07-01 20:04:00,79.6,59.3,29.97,North,360,3.0,10.0,50,0.00,,---,0.00,VWS V14.00,2013-07-02 02:04:00,
2013-07-01 20:09:00,79.4,59.7,29.97,North,360,7.0,10.0,51,0.00,,---,0.00,VWS V14.00,2013-07-02 02:09:00,
2013-07-01 20:14:00,79.2,59.5,29.97,North,360,3.0,10.0,51,0.00,,---,0.00,VWS V14.00,2013-07-02 02:14:00,
2013-07-01 20:19:00,79.0,59.3,29.97,North,360,6.0,10.0,51,0.00,,---,0.00,VWS V14.00,2013-07-02 02:19:00,
2013-07-01 20:24:00,78.7,59.1,29.97,North,360,1.0,10.0,51,0.00,,---,0.00,VWS V14.00,2013-07-02 02:24:00,
2013-07-01 20:29:00,78.5,59.4,29.98,North,360,6.0,10.0,52,0.00,,---,0.00,VWS V14.00,2013-07-02 02:29:00,
2013-07-01 20:34:00,78.3,59.2,29.98,North,360,1.0,6.0,52,0.00,,---,0.00,VWS V14.00,2013-07-02 02:34:00,
2013-07-01 20:39:00,78.1,59.6,29.98,North,360,4.0,8.0,53,0.00,,---,0.00,VWS V14.00,2013-07-02 02:39:00,
2013-07-01 20:44:00,77.9,59.4,29.98,North,360,4.0,8.0,53,0.00,,---,0.00,VWS V14.00,2013-07-02 02:44:00,
2013-07-01 20:49:00,77.8,59.3,29.98,North,360,5.0,8.0,53,0.00,,---,0.00,VWS V14.00,2013-07-02 02:49:00,
2013-07-01 20:54:00,77.6,59.7,29.98,North,360,4.0,8.0,54,0.00,,---,0.00,VWS V14.00,2013-07-02 02:54:00,
2013-07-01 20:59:00,77.5,59.6,29.98,North,360,3.0,8.0,54,0.00,,---,0.00,VWS V14.00,2013-07-02 02:59:00,
2013-07-01 21:04:00,77.4,59.5,29.98,North,360,5.0,7.0,54,0.00,,---,0.00,VWS V14.00,2013-07-02 03:04:00,
2013-07-01 21:09:00,77.3,59.9,29.99,North,360,3.0,7.0,55,0.00,,---,0.00,VWS V14.00,2013-07-02 03:09:00,
2013-07-01 21:14:00,77.3,59.9,29.99,North,360,2.0,7.0,55,0.00,,---,0.00,VWS V14.00,2013-07-02 03:14:00,
2013-07-01 21:19:00,77.2,59.8,29.99,North,360,2.0,7.0,55,0.00,,---,0.00,VWS V14.00,2013-07-02 03:19:00,
2013-07-01 21:24:00,77.1,60.2,29.99,North,360,4.0,7.0,56,0.00,,---,0.00,VWS V14.00,2013-07-02 03:24:00,
2013-07-01 21:29:00,77.0,60.1,29.99,North,360,1.0,7.0,56,0.00,,---,0.00,VWS V14.00,2013-07-02 03:29:00,
2013-07-01 21:34:00,76.9,60.0,29.99,North,360,3.0,5.0,56,0.00,,---,0.00,VWS V14.00,2013-07-02 03:34:00,
2013-07-01 21:39:00,76.8,59.9,29.99,North,360,0.0,6.0,56,0.00,,---,0.00,VWS V14.00,2013-07-02 03:39:00,
2013-07-01 21:44:00,76.8,59.9,30.00,North,360,3.0,6.0,56,0.00,,---,0.00,VWS V14.00,2013-07-02 03:44:00,
2013-07-01 21:49:00,76.7,60.3,29.99,North,360,2.0,6.0,57,0.00,,---,0.00,VWS V14.00,2013-07-02 03:49:00,
2013-07-01 21:54:00,76.5,60.2,30.00,North,360,3.0,6.0,57,0.00,,---,0.00,VWS V14.00,2013-07-02 03:54:00,
2013-07-01 21:59:00,76.3,60.0,30.00,North,360,2.0,6.0,57,0.00,,---,0.00,VWS V14.00,2013-07-02 03:59:00,
2013-07-01 22:01:00,76.2,59.9,30.00,North,360,5.0,6.0,57,0.00,,---,0.00,VWS V14.00,2013-07-02 04:01:00,
2013-07-01 22:06:00,76.1,60.3,30.00,North,360,4.0,5.0,58,0.00,,---,0.00,VWS V14.00,2013-07-02 04:06:00,
2013-07-01 22:11:00,75.8,60.0,30.00,North,360,2.0,6.0,58,0.00,,---,0.00,VWS V14.00,2013-07-02 04:11:00,
2013-07-01 22:16:00,75.7,59.9,30.00,North,360,0.0,6.0,58,0.00,,---,0.00,VWS V14.00,2013-07-02 04:16:00,
2013-07-01 22:21:00,75.5,59.7,30.00,North,9,4.0,6.0,58,0.00,,---,0.00,VWS V14.00,2013-07-02 04:21:00,
2013-07-01 22:26:00,75.3,60.0,30.00,North,360,3.0,6.0,59,0.00,,---,0.00,VWS V14.00,2013-07-02 04:26:00,
2013-07-01 22:31:00,75.1,59.8,30.00,North,360,1.0,6.0,59,0.00,,---,0.00,VWS V14.00,2013-07-02 04:31:00,
2013-07-01 22:36:00,75.0,60.2,30.00,North,360,3.0,6.0,60,0.00,,---,0.00,VWS V14.00,2013-07-02 04:36:00,
2013-07-01 22:41:00,74.8,60.0,30.00,North,360,2.0,6.0,60,0.00,,---,0.00,VWS V14.00,2013-07-02 04:41:00,
2013-07-01 22:46:00,74.6,59.8,30.00,North,360,5.0,8.0,60,0.00,,---,0.00,VWS V14.00,2013-07-02 04:46:00,
2013-07-01 22:51:00,74.3,60.0,30.01,North,360,5.0,8.0,61,0.00,,---,0.00,VWS V14.00,2013-07-02 04:51:00,
2013-07-01 22:56:00,74.0,60.2,30.01,North,360,6.0,8.0,62,0.00,,---,0.00,VWS V14.00,2013-07-02 04:56:00,
2013-07-01 23:01:00,73.8,60.0,30.01,North,360,8.0,9.0,62,0.00,,---,0.00,VWS V14.00,2013-07-02 05:01:00,
2013-07-01 23:06:00,73.5,60.2,30.01,North,360,2.0,7.0,63,0.00,,---,0.00,VWS V14.00,2013-07-02 05:06:00,
2013-07-01 23:11:00,73.3,60.0,30.01,North,360,6.0,9.0,63,0.00,,---,0.00,VWS V14.00,2013-07-02 05:11:00,
2013-07-01 23:16:00,73.2,59.9,30.01,North,360,2.0,9.0,63,0.00,,---,0.00,VWS V14.00,2013-07-02 05:16:00,
2013-07-01 23:21:00,73.1,59.8,30.01,North,360,3.0,10.0,63,0.00,,---,0.00,VWS V14.00,2013-07-02 05:21:00,
2013-07-01 23:25:00,73.0,59.7,30.01,North,360,3.0,10.0,63,0.00,,---,0.00,VWS V14.00,2013-07-02 05:25:00,
2013-07-01 23:31:00,73.0,59.2,30.01,North,360,5.0,10.0,62,0.00,,---,0.00,VWS V14.00,2013-07-02 05:31:00,
2013-07-01 23:36:00,73.0,59.2,30.01,North,360,2.0,7.0,62,0.00,,---,0.00,VWS V14.00,2013-07-02 05:36:00,
2013-07-01 23:41:00,73.0,58.8,30.01,North,360,4.0,9.0,61,0.00,,---,0.00,VWS V14.00,2013-07-02 05:41:00,
2013-07-01 23:46:00,72.9,58.7,30.01,North,360,3.0,9.0,61,0.00,,---,0.00,VWS V14.00,2013-07-02 05:46:00,
2013-07-01 23:51:00,72.8,58.6,30.01,North,360,5.0,9.0,61,0.00,,---,0.00,VWS V14.00,2013-07-02 05:51:00,
2013-07-01 23:56:00,72.6,58.4,30.01,North,360,3.0,9.0,61,0.00,,---,0.00,VWS V14.00,2013-07-02 05:56:00,